Showing default

SKYSAT C11, 42987

Orbit data source: Space-Track

SKYSAT C11, 42987 is a payload satellite owned by Terra Bella (US) in SSO that was launched on Tue, 31 Oct 2017 UTC via a MINOTAUR-C 3210 launch vehicle from the Air Force Western Test Range (AFWTR). Payloads include a variety of satellites, spacecraft, and rockets equipped with specific instruments for various scientific and technological missions. These include communications satellites like Starlink; space stations such as the ISS; scientific satellites like the Hubble; Earth observation satellites from companies like Planet Labs, Umbra, and HawkEye 360; GPS; miniature CubeSats for education and research; and military/defense satellites.

Loading next visibility...
SKYSAT C11 details
Identifier
42987, 2017-068A
Orbit
SSO
Last TLE update1 day ago
Origin
Flag of USTerra Bella (US)
ManufacturerMaxar SSL
MissionOperational Commercial Imaging
Bus & MotorSKYSAT-GEN2, Unknown motor
Mass110 kg wet, 110 kg dry
Launch date (UTC)
2017-10-31 (7 years ago)
Launch vehicle
MINOTAUR-C 3210
Launch site
Air Force Western Test Range (AFWTR)
Object type
Payload
Rocket body
Debris
Shape & HBRBox, 1.2 m
Radar Cross Section0.888 m², Medium (>0.1 m² and < 1m²)

Expand to show TLE details & history

TLE from 1 day ago
0 SKYSAT C11
1 42987U 17068A   24360.39090160  .00029661  00000-0  79702-3 0  9997
2 42987  97.3729 128.0338 0001837 234.4988 125.6086 15.37866208400076
Epoch: 2024-12-25T09:22Z
Definitive object data (Epoch: 2024-12-25T09:22:53.898Z)
Latitude0.00002°
Longitude-107.07611°
Altitude456.267 km
Speed7.638 km/s
True Right ascension08h 32m 08s
True Declination0° 00' 00"
Sunlit
Object was in full shadow at TLE epoch
Visualization TLE readout
Latitude74.40826°
Longitude101.44874°
Altitude465.754 km
Speed7.64 km/s
Apparent Right ascension22h 14m 38s
Apparent Declination20° 20' 36"
Sunlit
Object is in daylight
Visualization observer readout
Local Sidereal Time10:10:16
Azimuth358.822° N
Elevation-29.732°
Doppler factor1
Orbital elements
Apogee altitude450.615 km
Perigee altitude448.107 km
Semi-major axis6,827.498 km
Eccentricity0.0001837
Inclination97.3729°
RAAN128.0338°
Arg. of periapsis234.4988°
True anomaly125.62571°
Mean anomaly125.6086°
Eccentric anomaly125.61716°
Mean motion3.84725 °/min
BSTAR0.00079702
Orbital period93.57 mins
Loading maneuver chart data...
Loading historical data...
Loading historical data...
Loading historical data...
Loading historical data...
Loading historical data...
Loading historical data...
Loading historical data...

SKYSAT C11 Visibility forecast

Observer location: undefined°, undefined

Span
Click to sort rows by Start time (UTC) header in descending order
Start Az.
Max El. time (UTC)
Max El. Az.
Max El.
End time (UTC)
End Az.
6 mins2024-12-26 21:51:01.605Z1.541° NNE2024-12-26 21:54:01.605Z285.415° WNW39.212°2024-12-26 21:57:01.605Z207.778° SW
4 mins2024-12-27 08:23:01.605Z122.821° SE2024-12-27 08:24:01.605Z93.785° ESE29.565°2024-12-27 08:27:01.605Z9.893° NNE
|